EHI
0 0 0 0 0 0 0 0 1 3 3 4 6 9 9 9 6 4 3 7 12 14 18 32 43 42 37 32 29 28 26 23 22 20 19 18 16 14 12 9 6 4 2 2 1 0 1 1 1
0 0 0 0 0 0 0 1 2 2 3 4 7 9 10 9 6 4 5 10 17 18 21 31 43 44 38 34 31 29 27 25 23 21 20 17 14 13 11 9 7 4 2 1 0 0 1 2 2
0 0 0 0 0 0 0 1 1 1 2 4 8 11 11 8 5 5 9 17 22 22 23 32 44 47 42 38 35 31 28 26 24 21 19 16 15 14 13 9 5 3 1 0 0 0 1 1 1
0 0 0 0 0 0 0 0 0 1 3 6 9 12 12 9 6 9 17 25 27 24 22 31 44 49 47 43 39 33 29 26 25 23 19 17 18 18 16 9 4 2 1 1 0 1 1 1 1
0 0 0 0 0 0 0 0 2 3 6 9 11 13 13 10 10 16 24 30 31 26 22 30 43 49 48 45 40 35 30 28 26 23 20 18 19 19 15 10 5 3 2 2 1 1 2 3 3
0 0 0 0 0 0 0 1 4 8 10 11 13 14 12 12 15 22 28 31 31 27 23 30 40 44 44 42 38 35 33 30 26 22 20 18 17 16 14 12 9 7 5 4 4 3 3 5 6
0 0 0 0 0 0 0 1 4 10 12 14 15 13 11 13 18 25 30 30 28 25 24 28 33 35 37 37 34 33 33 30 26 22 19 17 15 15 15 14 13 10 8 7 7 6 5 6 8
0 0 0 0 0 0 1 1 3 7 12 14 15 12 10 15 24 31 34 31 26 23 22 25 28 30 30 29 28 28 30 30 25 22 21 18 14 13 14 14 13 11 8 8 9 9 8 8 8
0 0 0 0 1 1 2 2 2 6 11 14 15 13 13 20 31 38 36 30 25 21 19 21 25 27 27 25 24 26 28 27 22 18 19 16 11 10 9 10 10 9 7 8 9 10 10 9 7
0 0 0 1 2 3 3 2 3 7 12 15 16 17 18 24 32 36 33 27 21 16 13 15 19 23 25 25 25 26 26 24 18 14 13 12 9 7 6 7 7 7 6 7 8 9 9 8 7
0 0 1 2 3 3 3 3 4 7 11 15 18 19 21 24 26 28 27 24 19 14 10 10 13 17 20 22 25 26 24 20 16 12 11 12 10 9 7 6 6 6 6 5 5 6 7 6 5
0 0 2 4 4 3 3 5 6 7 11 16 18 20 22 24 23 23 23 22 20 16 12 10 11 12 14 18 22 22 20 18 15 13 13 13 11 10 8 7 6 5 5 4 4 4 5 4 3
0 1 4 5 4 4 5 6 7 9 14 18 18 18 21 22 22 22 22 22 20 18 15 13 12 11 11 15 17 16 15 15 14 14 13 11 9 8 7 5 4 4 4 5 5 4 3 3 2
0 1 3 4 4 6 8 8 8 11 16 18 17 16 17 18 18 19 20 20 19 16 15 15 13 11 10 13 14 12 10 10 10 11 10 8 7 6 5 4 4 4 5 5 4 3 3 2 2
0 0 1 2 4 6 8 8 8 11 16 17 16 15 14 15 16 16 16 17 17 15 14 14 12 10 10 12 13 11 8 6 6 6 7 5 5 6 6 5 4 5 6 6 5 3 2 1 1
0 0 0 1 2 3 4 5 5 10 15 17 16 15 14 13 14 14 14 16 16 15 14 12 10 9 10 12 13 11 8 6 5 4 4 3 5 7 7 5 4 4 6 7 7 4 2 0 0
0 0 0 0 0 1 2 3 4 9 13 14 14 13 12 11 11 12 13 14 14 14 13 11 9 9 10 13 14 13 10 8 6 5 5 5 6 8 7 4 3 4 6 7 6 4 2 0 0
0 0 0 0 0 0 1 3 5 8 9 10 11 11 10 9 8 9 9 9 10 11 11 10 9 9 10 12 14 14 12 9 7 6 8 8 8 7 6 4 3 4 5 5 3 2 1 1 0
0 0 0 0 0 0 1 2 4 6 6 6 7 8 6 5 5 6 6 6 7 9 9 8 8 8 8 10 12 13 13 10 7 7 8 9 9 7 4 3 3 4 5 3 2 1 0 1 1
0 0 0 0 0 0 1 2 3 4 2 2 3 5 4 2 2 3 3 5 6 7 7 6 4 5 5 7 10 12 12 9 6 6 5 5 6 6 3 1 1 3 3 2 2 1 0 0 0
0 0 0 0 0 0 1 1 2 2 1 1 2 3 2 1 2 2 2 3 5 5 4 3 2 2 4 7 9 10 8 7 5 4 3 2 3 3 2 1 1 2 2 2 1 0 0 0 0
0 0 0 0 0 0 0 0 0 1 1 1 2 3 2 1 2 3 3 3 4 3 2 1 0 1 3 6 8 8 6 4 4 3 3 2 2 2 2 2 3 4 4 3 2 1 0 0 0
0 0 0 0 0 0 0 0 0 1 1 1 2 3 2 2 3 3 3 3 3 2 1 0 0 1 2 4 5 5 3 3 3 3 2 3 4 3 3 4 5 6 6 4 3 2 1 1 0
0 0 0 0 0 0 0 0 0 1 0 0 2 3 3 3 3 3 3 2 2 1 1 1 1 1 1 1 2 1 1 1 2 2 2 3 5 5 5 5 5 5 5 5 3 2 2 2 1
0 0 0 0 0 0 0 0 0 0 0 0 1 2 3 3 3 2 1 1 1 1 1 1 0 0 0 1 0 0 0 0 1 1 1 2 4 5 4 4 3 3 4 4 3 3 3 2 1
0 0 0 0 0 0 0 0 0 0 0 0 0 1 1 2 3 2 0 0 1 2 1 0 0 0 0 0 0 0 0 0 0 0 0 1 2 3 2 1 1 1 2 3 3 3 3 2 1
0 0 0 0 0 0 0 0 0 0 0 1 0 0 0 1 2 1 0 0 1 2 1 0 0 0 0 0 0 0 0 0 0 0 0 0 2 2 1 0 0 0 1 2 3 3 3 2 1
0 0 0 0 0 0 0 0 0 0 0 0 0 0 0 0 1 1 0 0 0 0 0 0 0 0 0 0 0 0 0 0 0 0 0 1 2 2 1 0 0 0 0 1 2 2 2 1 0
0 0 0 0 0 0 0 0 0 0 0 0 0 0 0 0 0 0 0 0 0 0 0 0 0 0 0 0 0 0 0 0 0 0 0 1 2 3 2 1 0 0 0 0 1 1 1 0 0
0 0 0 0 0 0 0 0 0 0 0 0 0 0 0 0 0 0 0 0 0 0 0 0 0 0 0 0 0 0 0 0 0 0 0 1 2 3 2 1 0 0 0 0 0 0 0 0 0
Wind_Speed
2 1 1 3 5 4 1 3 1 2 3 3 6 9 8 6 4 4 2 10 12 11 9 12 13 13 13 12 12 11 11 10 10 9 9 9 10 10 10 10 9 9 9 8 7 6 6 5 4
1 1 3 4 5 2 3 2 2 1 2 5 7 9 8 6 5 7 5 9 13 12 8 9 14 13 13 13 12 11 11 10 9 9 9 9 8 8 8 8 8 8 7 7 6 6 6 5 4
1 1 3 4 2 3 3 1 2 2 4 5 5 6 5 4 4 5 7 13 12 10 8 9 14 13 13 13 12 11 10 10 9 9 8 8 7 7 7 7 7 7 6 6 6 6 6 5 5
1 3 4 3 2 4 3 3 0 2 4 4 6 6 5 3 3 6 12 13 12 9 7 10 14 13 12 12 12 11 10 9 9 8 7 7 7 6 6 6 6 6 6 6 6 6 6 6 6
3 4 3 2 4 2 0 1 1 2 3 3 7 6 4 3 7 12 12 12 11 9 6 8 13 13 12 12 11 11 10 9 8 8 7 7 7 6 6 6 5 6 6 6 6 6 6 6 7
3 4 3 1 3 2 1 1 3 5 5 4 6 6 3 3 8 10 12 11 10 9 7 6 11 12 12 12 12 10 9 8 7 7 7 7 6 6 6 6 6 5 5 5 6 6 7 7 7
3 3 2 3 2 2 2 1 3 4 4 2 4 6 3 2 5 9 9 9 8 8 7 5 5 7 9 10 10 9 8 7 7 6 6 6 7 6 6 5 5 5 6 6 6 7 7 8 8
5 3 1 2 2 2 2 0 1 3 4 3 3 6 4 3 7 10 10 9 7 6 5 4 3 3 3 4 7 7 7 7 6 6 6 6 6 6 6 5 5 5 6 6 7 7 7 8 8
3 3 3 4 3 3 1 1 2 3 6 4 4 4 6 8 11 12 9 8 6 6 3 3 3 2 2 2 4 5 6 5 5 4 5 4 2 3 3 4 5 6 6 7 7 7 7 7 8
4 3 7 6 5 4 2 2 2 4 6 4 5 6 8 10 11 12 10 8 6 5 3 3 3 2 2 2 2 2 3 3 2 2 2 2 1 2 3 4 6 6 7 7 7 6 7 5 3
3 6 6 4 4 4 3 1 1 6 3 5 7 8 8 9 9 9 8 7 7 6 4 3 3 3 2 1 1 1 1 2 2 2 2 2 1 1 2 1 3 3 4 3 4 4 3 3 2
3 6 4 4 3 3 3 3 3 3 4 6 9 10 10 10 8 8 8 6 5 5 4 4 4 3 2 1 1 1 1 2 2 2 2 2 1 1 1 1 2 2 1 2 2 2 3 3 4
2 4 2 1 0 2 4 4 5 6 9 9 10 11 10 9 7 6 7 7 5 4 3 3 4 4 3 2 1 1 1 2 2 2 2 3 2 2 2 2 1 2 2 2 2 2 3 3 3
3 2 3 1 1 1 5 4 6 5 9 10 10 9 8 8 8 6 6 5 5 3 3 2 3 3 3 2 1 2 2 2 2 1 2 2 2 2 1 1 1 2 2 2 2 3 3 3 2
1 2 4 2 1 2 6 5 3 6 9 10 9 9 8 6 6 6 5 5 4 3 3 2 2 2 2 2 2 1 2 2 2 2 2 2 2 1 1 2 1 2 2 2 1 2 1 2 2
4 3 3 5 1 2 7 3 2 6 10 9 8 7 6 5 5 5 5 5 4 4 3 2 3 2 1 1 1 0 1 1 2 2 1 2 2 2 2 1 1 2 1 1 1 1 1 2 2
4 2 3 5 2 2 5 3 2 6 10 8 7 6 4 4 3 4 4 5 4 4 3 3 3 2 1 0 0 0 1 1 1 1 1 1 1 2 1 1 1 1 0 1 2 1 1 1 2
4 2 2 3 2 4 5 3 4 4 9 8 6 5 4 3 2 2 3 4 4 4 4 3 2 2 1 1 1 1 1 0 0 1 1 1 1 1 1 1 1 1 0 1 1 1 1 1 2
2 1 2 3 0 4 4 4 4 5 6 7 6 4 2 2 1 2 2 3 4 3 3 2 1 1 1 0 0 0 1 1 1 1 1 1 1 1 1 1 1 1 1 1 1 0 1 1 1
1 0 2 3 1 3 5 4 3 4 5 6 6 4 2 2 2 3 3 2 3 2 2 2 1 1 1 1 1 1 1 1 1 1 1 1 1 1 1 1 1 1 1 1 0 0 0 1 0
1 2 3 3 3 3 6 4 3 3 4 4 3 3 3 3 3 2 2 2 2 2 1 1 1 1 1 1 1 1 2 2 2 1 1 1 1 1 1 1 1 1 1 1 1 1 1 1 1
2 4 2 2 2 1 3 2 2 1 3 3 2 1 1 1 3 2 2 1 1 0 1 1 1 1 1 1 1 1 1 0 2 1 1 2 1 1 1 1 1 1 1 2 2 1 1 1 1
2 2 0 1 3 2 3 4 2 2 2 1 0 0 1 1 2 2 1 1 0 1 1 0 1 2 2 1 0 1 0 1 1 1 2 2 2 1 1 2 1 1 1 2 2 2 2 2 2
2 5 6 5 5 3 2 3 1 1 1 0 1 1 1 1 2 1 1 1 1 1 1 1 1 2 2 2 1 1 1 1 1 1 2 2 2 1 2 2 2 2 2 2 2 2 2 2 2
7 7 6 7 6 1 2 4 1 2 1 2 2 1 1 1 1 1 1 1 1 1 1 1 1 2 2 2 1 1 1 2 1 2 2 2 2 2 3 2 2 2 2 2 2 2 2 2 3
1 7 6 2 2 2 3 1 2 0 0 2 2 2 2 1 1 1 1 1 1 0 0 1 1 2 2 2 2 1 1 1 1 2 2 2 2 3 3 2 2 2 2 2 1 1 2 2 2
2 1 4 6 2 1 1 0 1 1 3 3 2 3 2 1 1 0 1 1 1 1 1 1 1 2 2 2 1 1 1 0 1 2 2 2 2 3 3 2 2 2 2 1 1 1 2 2 2
4 4 5 4 3 0 1 2 3 2 1 2 2 2 2 2 1 1 1 1 1 1 1 1 1 1 2 1 1 1 1 1 1 1 2 2 2 2 2 2 2 2 2 1 1 1 2 2 2
3 3 4 4 4 4 2 4 4 5 3 1 0 0 0 1 1 1 1 1 1 1 0 0 1 1 1 1 1 1 1 1 1 1 2 2 2 2 2 2 2 2 2 1 1 2 2 2 3
3 3 4 4 1 3 3 4 2 4 3 3 1 0 0 1 1 1 1 2 2 1 1 1 1 1 1 1 0 1 1 1 1 2 2 2 2 2 1 1 1 1 1 1 1 2 2 2 2
Wind_Direction
248 235 102 61 51 45 326 270 153 20 25 59 80 90 92 84 111 141 153 148 143 148 153 149 146 143 139 136 133 130 128 126 125 127 127 127 129 131 133 136 140 145 148 152 156 160 163 165 169
242 174 59 55 72 40 289 254 85 86 125 101 76 79 78 74 90 117 126 143 143 147 149 150 149 148 145 142 140 138 136 134 132 131 132 132 133 136 140 143 146 151 156 162 168 175 178 182 189
254 126 84 72 109 185 247 226 125 61 84 79 72 58 66 93 111 136 146 141 139 143 147 153 152 151 150 149 147 145 144 142 139 137 136 138 141 143 147 151 158 162 167 174 181 187 192 198 202
80 53 53 69 251 232 207 243 30 74 45 51 99 73 60 63 126 131 135 139 139 143 147 155 154 154 152 151 150 148 147 147 145 145 146 145 148 150 152 158 167 174 183 189 193 198 201 207 212
71 77 55 345 284 281 268 203 60 99 101 67 94 94 71 33 102 122 131 139 139 141 146 156 156 154 153 153 152 151 151 151 152 154 155 155 157 160 165 169 178 187 194 201 206 210 213 217 222
59 72 75 278 290 307 341 48 76 83 105 108 105 109 96 98 112 130 133 135 137 138 140 149 155 154 155 156 156 156 156 155 158 162 164 166 167 168 173 181 188 196 200 206 216 222 225 226 230
123 110 181 206 252 296 291 6 77 100 111 103 123 108 108 83 122 127 124 116 120 130 136 142 152 157 161 160 157 156 157 157 160 167 168 171 176 179 183 192 197 206 211 216 224 235 239 238 236
155 108 286 238 205 246 258 13 76 90 109 99 102 121 147 162 121 113 106 100 103 112 121 132 133 132 155 164 162 164 164 164 165 169 171 177 183 187 196 199 208 217 224 229 229 238 245 246 243
126 83 247 228 195 215 205 107 18 60 90 75 71 107 140 130 113 108 101 95 99 99 101 114 109 111 134 164 176 176 170 171 171 184 184 183 193 200 207 208 219 225 232 241 242 246 251 251 252
119 166 236 225 189 180 175 133 143 91 77 74 77 89 111 113 111 113 113 112 115 125 133 120 120 130 134 166 167 174 174 175 184 192 189 185 180 203 211 233 240 242 246 250 250 246 249 250 247
179 206 239 247 205 158 139 147 124 124 112 152 141 126 112 102 102 110 117 128 139 146 145 137 133 125 124 152 162 170 170 179 195 196 187 182 179 211 224 229 254 256 255 255 259 254 247 245 237
228 250 231 231 222 162 156 151 89 111 150 134 126 126 113 106 112 121 125 125 129 133 144 138 141 138 140 146 189 170 179 188 198 212 202 190 199 215 225 224 238 236 242 246 254 252 251 253 245
260 259 265 240 34 133 116 120 105 100 108 107 110 112 115 115 111 111 121 123 120 127 145 149 150 147 145 133 189 162 190 194 202 200 205 196 196 212 221 225 235 244 241 237 248 255 255 249 249
257 277 288 276 199 161 127 124 102 123 123 113 109 106 112 116 116 102 103 117 125 146 154 143 140 147 139 144 174 186 195 194 189 191 198 198 195 205 213 229 234 244 246 237 226 233 240 244 247
285 340 328 292 104 135 95 63 118 152 127 118 113 109 105 100 101 109 120 129 137 148 141 119 123 127 139 158 185 180 187 174 178 200 204 196 193 195 198 218 233 244 244 244 235 252 243 257 262
3 20 325 290 126 143 101 130 150 143 120 114 111 107 102 98 101 105 107 110 117 112 106 101 84 77 91 144 193 204 192 169 188 198 208 203 198 185 181 216 244 243 231 241 241 255 266 265 263
7 332 295 303 294 92 105 144 162 143 120 114 112 109 107 91 87 105 114 115 111 107 101 86 68 61 37 348 286 172 176 190 196 187 196 208 217 198 174 210 241 237 222 259 266 254 234 259 275
269 290 304 290 305 83 101 126 118 130 116 117 110 98 92 92 105 140 121 109 107 99 91 84 70 47 35 10 7 15 18 330 234 193 194 203 221 210 179 212 243 243 218 267 270 269 291 255 262
207 266 296 275 168 81 110 121 124 120 104 111 110 104 103 102 95 84 85 90 90 85 83 68 60 9 34 38 47 8 316 316 321 259 210 203 209 204 200 253 275 222 220 238 262 255 295 306 332
153 268 287 301 339 102 107 93 106 120 132 131 128 126 121 68 42 53 51 55 74 75 67 37 33 23 356 268 193 223 223 254 257 283 314 253 220 219 208 211 226 230 231 264 262 151 2 320 42
148 195 226 247 356 71 104 46 40 73 98 110 120 146 148 142 138 102 55 35 64 69 64 28 346 343 311 329 42 17 23 12 4 334 318 301 254 227 215 211 209 219 189 228 244 191 160 255 282
257 248 229 213 106 265 134 139 320 86 74 86 105 131 141 150 132 116 83 53 93 132 67 34 338 324 324 351 107 103 74 293 271 267 279 297 278 250 231 215 204 206 203 223 240 212 203 196 253
238 264 269 182 133 70 32 109 296 39 48 14 237 186 148 171 145 134 133 146 169 111 86 12 350 325 319 332 159 126 246 252 266 293 315 307 297 279 245 218 217 226 227 234 244 245 224 203 212
46 27 27 44 67 49 323 120 301 309 239 293 40 61 101 134 130 125 114 104 80 84 38 3 358 326 327 333 318 180 226 253 288 305 312 307 305 301 280 237 227 229 229 235 234 235 225 221 223
49 62 27 11 24 309 328 85 260 274 139 141 138 85 90 113 93 85 56 24 76 83 31 355 351 326 322 328 311 242 221 213 212 247 269 284 291 284 272 259 246 244 237 235 233 233 242 234 232
66 119 140 179 211 262 351 92 253 264 131 100 111 117 87 82 91 152 211 210 197 223 318 332 334 316 312 315 300 283 216 198 231 245 245 257 254 256 258 256 251 248 243 243 246 254 253 249 244
88 81 159 135 100 78 335 359 285 11 30 57 57 64 67 83 119 157 247 237 229 252 263 258 278 307 312 308 298 307 274 241 269 281 276 267 265 262 262 259 257 262 259 240 226 247 267 265 255
107 123 78 89 112 134 269 235 231 255 304 1 18 44 17 28 48 18 329 288 263 256 256 273 245 270 289 300 293 333 281 271 271 291 295 289 280 272 270 275 277 272 277 276 244 269 267 266 266
29 46 86 99 131 144 217 267 225 194 200 203 265 259 33 26 8 20 325 313 323 323 331 346 325 319 312 310 309 319 289 281 289 291 284 282 287 288 274 263 259 257 269 274 253 257 265 263 274
114 118 117 122 180 141 156 264 257 171 178 159 163 44 354 4 17 19 344 355 6 357 338 301 287 297 282 301 333 314 308 332 334 315 300 297 302 303 291 285 280 276 307 288 252 274 284 262 268